sat.trackr.live / text

‹ back to catalog

STARLINK-3285

NORAD 50181 · 2021-125AB

PAYLOAD ACTIVE UNKNOWN

§ Identity

Operator
Country
US
Launch date
2021-12-18
Launch site
AFWTR
Launch vehicle
Mass (kg)
RCS (m²)

Purposes: comms

External: N2YO · Heavens-Above · Gunter

§ Orbital elements

Epoch: 2026-05-25T01:05:19.714848Z

Period
95.44 min
Inclination
53.2145°
Eccentricity
0.0001284
Mean motion
15.08838365 rev/d
Perigee alt
538.9 km
Apogee alt
540.6 km
Semi-major
6,917.9 km
B*
6.7531e-5
RAAN
266.3548°
Arg perigee
89.6582°
Mean anomaly
270.4557°
Rev number
24,813

§ Raw data

STARLINK-32851 50181U 21125AB  26145.04536707  .00000787  00000+0  67531-4 0  99932 50181  53.2145 266.3548 0001284  89.6582 270.4557 15.08838365248139

JSON: /api/v1/satellites/50181 · /tle

For live sub-satellite position, see the globe view (requires WebGL).

§ Visibility from observer

Set your observer location to see the next 7 days of passes ≥ 10°. The values pass through the URL so the page stays shareable.

No JS? Fill the form by hand. The geolocation button needs JavaScript.